This is the latest recevied weather packets stored in our database for station/object N4AR. If no packets are shown the sender has not sent any weather packets the latest 10 day(s).
| Time | Temp. | Humidity | Pressure | Rain* | Wind** | Luminosity | Snow |
|---|---|---|---|---|---|---|---|
| 1777870306 | 8.89° C | 78% | 1017.9 hPa | 0 mm | - | 0 W/m² | - |
| 1777870004 | 8.89° C | 77% | 1017.8 hPa | 0 mm | - | 0 W/m² | - |
| 1777869701 | 8.89° C | 77% | 1018 hPa | 0 mm | - | 0 W/m² | - |
| 1777869398 | 8.89° C | 77% | 1018 hPa | 0 mm | - | 0 W/m² | - |
| 1777869095 | 9.44° C | 76% | 1017.9 hPa | 0 mm | - | 0 W/m² | - |
| 1777868793 | 9.44° C | 76% | 1018.1 hPa | 0 mm | - | 0 W/m² | - |
| 1777868489 | 8.89° C | 76% | 1018 hPa | 0 mm | - | 0 W/m² | - |
| 1777868185 | 8.89° C | 76% | 1018 hPa | 0 mm | - | 0 W/m² | - |
| 1777867881 | 8.89° C | 76% | 1017.9 hPa | 0 mm | - | 0 W/m² | - |
| 1777867579 | 8.89° C | 75% | 1017.9 hPa | 0 mm | - | 0 W/m² | - |
| 1777867276 | 8.33° C | 75% | 1017.9 hPa | 0 mm | - | 0 W/m² | - |
| 1777866972 | 8.33° C | 74% | 1017.9 hPa | 0 mm | - | 0 W/m² | - |
| 1777866669 | 8.33° C | 74% | 1017.8 hPa | 0 mm | - | 0 W/m² | - |
| 1777866367 | 7.78° C | 73% | 1017.9 hPa | 0 mm | - | 0 W/m² | - |
| 1777866063 | 7.22° C | 76% | 1017.8 hPa | 0 mm | - | 0 W/m² | - |
| 1777865761 | 7.22° C | 75% | 1017.6 hPa | 0 mm | - | 0 W/m² | - |
| 1777865458 | 7.22° C | 76% | 1018 hPa | 0 mm | - | 0 W/m² | - |
| 1777865155 | 7.22° C | 76% | 1017.9 hPa | 0 mm | - | 0 W/m² | - |
| 1777864852 | 6.67° C | 79% | 1017.5 hPa | 0 mm | - | 0 W/m² | - |
| 1777864549 | 6.11° C | 80% | 1017.6 hPa | 0 mm | - | 0 W/m² | - |
| 1777864244 | 6.11° C | 79% | 1017.6 hPa | 0 mm | - | 0 W/m² | - |
| 1777863943 | 6.11° C | 80% | 1017.5 hPa | 0 mm | - | 0 W/m² | - |
| 1777863638 | 6.11° C | 80% | 1017.9 hPa | 0 mm | - | 0 W/m² | - |
| 1777863336 | 6.67° C | 80% | 1017.4 hPa | 0 mm | - | 0 W/m² | - |
| 1777863033 | 6.67° C | 80% | 1017.5 hPa | 0 mm | - | 0 W/m² | - |
* Rain latest hour (hover to see other rain measurements)
** Current wind speed in m/s (hover to see current wind gust speed)